Montreal/Mirabel, Ontario

6:49 AM EST on February 27, 2017 (GMT -0500)
Montreal International (Mirabel)

Weather History for CYMX - March, 2013

Change the Weather History Date:

Thursday, March 21, 2013

  Actual Average Record
Temperature  
Mean Temperature 24 °F -  
Max Temperature 30 °F 32 °F 78 °F (2012)
Min Temperature 19 °F 17 °F 1 °F (2007)
Degree Days  
Heating Degree Days 40    
Moisture  
Dew Point 18 °F    
Average Humidity 73    
Maximum Humidity 86    
Minimum Humidity 64    
Precipitation  
Precipitation 0.00 in - - ()
Sea Level Pressure  
Sea Level Pressure 29.66 in    
Wind  
Wind Speed 9 mph ()    
Max Wind Speed 13 mph    
Max Gust Speed 22 mph    
Visibility 15.6 miles    
Events Snow    
Averages and records for this station are not official NWS values.
T = Trace of Precipitation, MM = Missing Value Source: Averaged Metar Reports

Daily Weather History Graph

Daily Weather History Graph

Search for Another Location

Airport or City:

Trip Planner

Search our weather history database for the weather conditions in past years. The results will help you decide how hot, cold, wet, or windy it might be!

Date:

Astronomy

Mar. 21, 2013 Rise Set
Actual Time 6:56 AM EDT 7:10 PM EDT
Civil Twilight 6:27 AM EDT 7:39 PM EDT
Nautical Twilight 5:52 AM EDT 8:14 PM EDT
Astronomical Twilight 5:16 AM EDT 8:50 PM EDT
Moon 1:23 PM EDT (3/21) 3:32 AM EDT (3/21)
Length of Visible Light 13h 12m
Length of Day
12h 13m
Waxing Gibbous, 68% of the Moon is Illuminated
Mar 21
Waxing Gibbous
Mar 27
Full
Apr 3
Last Quarter
Apr 10
New
Apr 18
First Quarter

Hourly Weather History & Observations

Time (EDT) Temp. Windchill Dew Point Humidity Pressure Visibility Wind Dir Wind Speed Gust Speed Precip Events Conditions
12:00 AM 26.6 °F 16.8 °F 21.2 °F 80% 29.66 in 25.0 mi WSW 10.4 mph - N/A   Scattered Clouds
1:00 AM 26.6 °F 15.7 °F 19.4 °F 74% 29.65 in 25.0 mi WSW 12.7 mph 21.9 mph N/A   Mostly Cloudy
2:00 AM 24.8 °F 14.6 °F 17.6 °F 74% 29.65 in 25.0 mi WSW 10.4 mph - N/A   Mostly Cloudy
3:00 AM 23.0 °F 12.4 °F 17.6 °F 80% 29.65 in 25.0 mi WSW 10.4 mph 18.4 mph N/A   Mostly Cloudy
4:00 AM 23.0 °F 11.7 °F 15.8 °F 74% 29.65 in 25.0 mi WSW 11.5 mph 18.4 mph N/A   Mostly Cloudy
5:00 AM 21.2 °F 10.1 °F 14.0 °F 74% 29.65 in 25.0 mi WSW 10.4 mph - N/A   Mostly Cloudy
6:00 AM 21.2 °F 11.7 °F 14.0 °F 74% 29.66 in 25.0 mi WSW 8.1 mph - N/A   Overcast
7:00 AM 19.4 °F 7.9 °F 14.0 °F 80% 29.66 in 25.0 mi SW 10.4 mph 19.6 mph N/A   Overcast
7:27 AM 19.4 °F 7.9 °F 14.0 °F 80% 29.66 in 20.0 mi WSW 10.4 mph 17.3 mph N/A Snow Light Snow Showers
8:00 AM 19.4 °F 8.6 °F 14.0 °F 80% 29.67 in 15.0 mi SW 9.2 mph - N/A Snow Light Snow Showers
9:00 AM 21.2 °F 12.6 °F 14.0 °F 74% 29.67 in 20.0 mi WSW 6.9 mph - N/A   Mostly Cloudy
10:00 AM 21.2 °F 10.9 °F 15.8 °F 80% 29.67 in 15.0 mi SW 9.2 mph - N/A Snow Light Snow Showers
11:00 AM 24.8 °F 16.1 °F 17.6 °F 74% 29.67 in 25.0 mi WSW 8.1 mph 17.3 mph N/A Snow Light Snow Showers
12:00 PM 26.6 °F 16.2 °F 17.6 °F 69% 29.68 in 25.0 mi West 11.5 mph - N/A Snow Light Snow Showers
12:46 PM 26.6 °F 16.8 °F 19.4 °F 74% 29.67 in 30.0 mi West 10.4 mph 18.4 mph N/A   Overcast
1:00 PM 26.6 °F 16.8 °F 19.4 °F 74% 29.67 in 30.0 mi WSW 10.4 mph 18.4 mph N/A   Overcast
1:31 PM 28.4 °F 19.7 °F 19.4 °F 69% 29.67 in 20.0 mi WSW 9.2 mph 17.3 mph N/A Snow Light Snow Showers
2:00 PM 28.4 °F 18.0 °F 21.2 °F 74% 29.67 in 25.0 mi WSW 12.7 mph 20.7 mph N/A Snow Light Snow Showers
3:00 PM 30.2 °F 21.3 °F 21.2 °F 69% 29.65 in 25.0 mi WSW 10.4 mph 21.9 mph N/A Snow Light Snow Showers
3:42 PM 30.2 °F 20.8 °F 19.4 °F 64% 29.65 in 30.0 mi WSW 11.5 mph 20.7 mph N/A   Mostly Cloudy
4:00 PM 30.2 °F 20.2 °F 19.4 °F 64% 29.65 in 30.0 mi WSW 12.7 mph 20.7 mph N/A   Mostly Cloudy
5:00 PM 30.2 °F 21.9 °F 19.4 °F 64% 29.65 in 30.0 mi West 9.2 mph - N/A   Mostly Cloudy
6:00 PM 30.2 °F 23.4 °F 19.4 °F 64% 29.66 in 25.0 mi WSW 6.9 mph - N/A   Mostly Cloudy
7:00 PM 28.4 °F 22.2 °F 19.4 °F 69% 29.67 in 25.0 mi WSW 5.8 mph - N/A Snow Light Snow Showers
7:52 PM 28.4 °F 23.3 °F 19.4 °F 69% 29.68 in 25.0 mi WSW 4.6 mph - N/A   Mostly Cloudy
8:00 PM 28.4 °F 23.3 °F 19.4 °F 69% 29.68 in 25.0 mi WSW 4.6 mph - N/A   Mostly Cloudy
9:00 PM 28.4 °F 20.4 °F 19.4 °F 69% 29.69 in 20.0 mi SW 8.1 mph - N/A Snow Light Snow Showers
10:00 PM 26.6 °F 19.1 °F 23.0 °F 86% 29.69 in 5.0 mi WSW 6.9 mph - N/A Snow Light Snow Showers
11:00 PM 26.6 °F 20.0 °F 21.2 °F 80% 29.68 in 10.0 mi SW 5.8 mph - N/A Snow Light Snow Showers